Wind_Speed
66 64 65 62 59 59 53 49 25 8 18 42 68 75 90 95 91 83 92 77 56 66 49 52 62 80 78 72 67 70 71 70 65 66 63 62 59 56 53 53 52 53 55 55
69 66 66 65 61 59 55 52 39 16 11 38 64 75 89 94 92 85 93 84 73 71 49 46 59 72 79 75 69 66 67 68 69 71 68 62 62 61 59 57 56 54 57 58
70 66 63 65 63 59 55 51 46 26 3 34 59 76 89 92 93 87 92 94 82 81 79 58 52 59 66 70 76 74 70 66 66 66 63 63 61 55 55 59 60 60 58 55
68 68 64 63 61 56 51 50 45 31 5 25 57 74 86 92 94 87 90 99 85 76 81 76 65 54 60 62 62 77 75 68 69 69 66 64 62 62 64 62 56 57 60 57
65 68 70 64 60 52 51 46 43 40 16 12 51 73 81 89 93 88 88 99 100 94 87 67 68 64 61 49 57 60 64 74 76 74 69 68 66 65 64 63 59 60 56 57
61 66 66 63 58 53 47 44 41 41 32 4 36 69 75 86 93 91 94 93 100 100 86 76 83 78 66 54 50 52 57 61 64 73 74 69 67 68 68 66 63 65 65 58
57 63 61 59 56 51 47 44 43 39 36 20 14 63 72 80 90 95 102 95 98 95 90 80 70 68 74 67 66 60 53 57 65 72 69 73 65 64 76 70 67 68 68 70
54 58 56 57 46 45 40 35 33 34 27 27 6 43 68 74 84 97 102 103 106 94 90 87 74 64 72 78 73 69 65 61 65 76 75 78 78 82 81 74 72 73 71 70
52 55 57 58 42 40 37 34 31 29 28 24 21 5 65 71 79 89 100 106 108 104 105 102 99 93 82 77 73 70 62 55 67 69 72 69 71 72 74 79 77 77 77 73
56 55 53 61 45 37 37 34 29 26 23 22 15 12 15 71 75 83 92 102 105 106 108 105 99 98 100 104 103 90 86 74 69 74 81 77 78 81 82 82 79 76 80 78
49 53 53 57 53 41 38 35 31 26 23 19 19 10 6 6 62 81 84 90 94 100 102 102 99 98 91 91 95 102 95 97 95 94 93 91 80 81 82 83 82 81 82 84
48 48 56 57 55 43 36 39 33 28 21 18 19 15 13 4 9 31 77 86 89 96 98 101 100 102 98 95 94 97 97 100 97 98 95 97 91 91 86 85 87 88 84 84
46 52 56 58 53 44 40 33 34 31 31 22 19 20 13 12 9 15 19 32 72 90 97 101 104 104 101 93 91 99 104 101 89 89 98 102 104 98 97 95 93 94 87 88
51 57 59 57 49 48 41 37 33 30 28 34 31 28 21 21 17 13 17 24 29 36 60 95 100 102 111 103 100 107 111 112 112 116 116 110 110 110 108 106 106 105 105 99
55 62 59 56 50 48 45 42 42 39 34 31 34 39 35 33 29 27 19 19 25 34 39 42 47 66 100 112 106 116 125 130 131 125 120 119 115 115 113 110 109 106 108 104
61 59 51 55 51 49 48 47 47 49 43 41 38 41 38 41 43 39 34 33 30 28 33 42 47 51 52 58 73 98 120 126 120 114 113 113 112 114 119 118 115 112 114 113
58 50 55 56 53 51 52 53 52 51 50 49 50 50 49 48 48 49 50 46 45 45 42 41 41 50 55 60 63 61 63 67 74 88 106 118 116 112 111 115 116 117 119 123
56 58 58 53 56 55 54 53 54 52 51 51 52 52 52 53 55 55 56 59 55 55 58 60 53 50 50 54 59 63 65 69 71 70 71 74 79 89 100 113 118 120 117 115
58 59 60 59 55 52 56 58 60 58 54 55 56 56 58 60 60 61 62 65 67 66 66 69 65 63 59 57 57 59 62 64 67 71 73 77 78 77 78 79 79 82 87 100
62 61 57 59 59 60 57 59 63 64 64 68 68 69 68 68 68 72 75 76 79 81 81 78 74 68 65 64 62 64 66 68 70 71 72 73 74 77 81 79 77 78 80 79
58 58 64 69 69 70 69 68 69 71 69 72 75 78 82 81 80 80 85 85 86 85 84 82 79 76 73 73 70 69 70 70 71 70 71 74 77 75 76 77 80 80 79 79
67 67 68 72 74 73 78 78 76 75 78 77 78 82 83 86 89 91 89 91 92 91 91 89 83 80 79 80 78 72 69 73 72 71 71 68 73 76 75 76 77 76 78 78
87 79 75 78 82 89 86 81 82 83 85 90 89 88 91 95 97 97 95 92 89 89 91 89 86 81 80 80 77 70 71 74 75 73 73 72 71 71 76 75 77 79 79 78
83 80 80 78 75 83 85 89 90 92 100 101 98 98 101 102 103 99 95 93 89 86 82 80 76 74 74 81 81 73 72 76 77 76 75 76 75 75 75 76 77 80 81 81
79 78 80 81 83 88 93 94 97 100 99 97 99 99 99 97 95 91 90 86 85 83 82 81 78 75 71 76 81 78 75 75 78 79 78 79 80 81 81 78 78 80 82 84
86 84 85 87 90 94 100 102 102 100 99 98 97 100 100 96 93 90 86 84 82 79 79 79 78 73 71 73 76 78 77 75 76 81 82 84 84 83 87 85 85 82 82 85
Wind_Direction
2 3 2 2 5 7 8 10 9 308 212 199 200 197 198 199 197 194 191 187 183 193 209 223 226 232 237 231 234 235 237 238 241 243 247 249 247 248 249 252 255 259 262 267
3 4 2 3 5 7 7 13 13 4 210 196 196 195 197 199 196 194 194 186 188 183 202 220 226 225 227 230 234 236 235 239 242 244 245 248 253 252 251 252 257 257 262 264
2 3 1 3 4 5 9 13 16 12 186 194 195 194 197 198 196 195 194 190 199 212 203 203 223 223 223 231 235 235 238 240 242 244 246 246 248 246 248 253 256 265 268 268
0 3 2 3 3 4 9 11 16 25 20 195 191 195 196 198 197 195 194 197 203 208 208 213 216 216 224 233 235 236 238 243 245 244 245 244 247 252 253 255 256 256 260 263
357 1 4 359 1 3 6 13 14 27 33 185 194 195 198 199 199 194 196 198 206 212 219 211 217 211 208 216 237 228 235 241 242 243 244 245 246 248 251 252 255 256 259 265
355 357 357 358 357 358 5 7 20 20 26 43 195 199 200 200 200 195 194 204 207 212 207 211 214 214 209 214 222 227 232 237 243 245 243 244 244 251 252 251 254 258 258 264
353 354 355 356 355 355 2 6 12 21 18 23 192 202 203 203 203 199 201 204 210 214 214 210 217 224 216 217 224 225 231 238 231 238 240 245 236 244 248 250 254 256 258 263
344 349 352 357 356 352 1 6 18 13 29 27 47 203 207 208 207 205 205 210 215 219 220 219 223 224 225 227 226 232 240 243 243 241 244 245 246 244 249 249 253 255 258 260
335 342 344 350 350 349 355 3 2 21 17 34 34 185 208 212 214 212 212 211 215 219 227 233 232 230 224 220 233 237 233 237 236 237 242 246 250 252 254 256 258 256 252 254
331 335 341 345 344 348 343 353 360 3 17 14 38 39 211 217 217 220 219 219 220 223 228 235 239 239 240 240 238 242 234 230 236 241 242 246 249 253 256 257 257 255 259 263
329 331 332 340 336 337 344 337 351 5 1 7 359 7 43 225 223 223 227 228 229 228 231 236 239 241 242 243 244 240 239 236 242 247 252 251 252 256 255 254 258 256 256 259
328 327 329 331 331 330 335 344 341 346 359 358 13 354 333 306 229 231 232 230 233 234 235 237 241 242 243 243 246 246 235 235 239 245 252 254 252 254 254 254 257 257 260 259
317 320 324 325 328 326 334 336 339 336 335 341 343 357 339 330 290 247 238 235 237 237 238 240 240 244 245 246 242 239 235 238 237 247 256 257 257 255 256 254 256 258 259 261
312 315 318 322 325 318 321 322 324 328 333 331 329 323 332 325 312 286 272 249 242 240 243 243 242 245 244 246 239 237 237 237 251 258 258 257 256 256 254 255 255 256 259 263
309 312 317 317 319 317 314 317 322 324 327 322 320 313 320 307 302 298 284 271 263 255 250 246 243 246 247 244 247 246 244 247 253 256 256 255 254 254 256 257 256 257 256 257
306 311 309 311 315 316 313 316 319 318 320 314 314 305 304 297 298 297 296 303 290 275 268 259 254 252 250 246 246 249 249 248 251 254 256 255 255 254 254 255 256 258 260 259
306 303 306 308 310 311 310 312 311 313 307 304 299 297 297 294 292 293 294 292 293 293 291 278 265 258 256 255 253 252 252 254 256 258 259 257 256 257 257 256 257 257 257 255
302 303 305 305 305 308 305 304 301 297 295 293 291 289 289 288 287 285 283 284 286 286 287 291 284 274 265 258 256 254 254 256 257 257 259 259 261 262 261 260 259 258 258 257
305 306 308 308 307 306 303 301 299 298 294 290 288 288 288 289 286 281 278 278 282 283 281 284 283 282 277 269 267 263 259 256 253 254 257 258 258 258 260 262 264 265 263 260
305 307 309 306 304 298 294 292 290 287 286 284 283 282 284 283 279 278 278 277 278 278 279 280 280 278 273 272 272 271 266 262 259 256 255 255 259 261 259 259 262 264 266 267
299 297 298 299 297 301 297 296 291 288 287 287 286 284 284 282 281 279 280 279 279 279 280 279 278 278 277 273 273 274 269 264 260 259 258 256 254 256 260 261 260 260 263 266
303 296 293 293 295 295 293 296 296 295 296 294 292 289 287 285 282 280 280 280 281 282 283 283 282 279 278 275 272 271 270 264 260 259 260 258 257 254 254 258 261 261 261 263
310 303 301 295 289 291 300 301 301 302 302 300 293 288 284 283 284 286 288 286 283 280 280 280 279 278 277 276 272 266 267 263 262 260 260 261 257 257 255 255 256 257 259 261
305 302 299 296 297 296 298 302 304 304 304 298 293 287 285 287 289 289 287 285 285 284 281 280 277 275 271 271 269 264 261 261 259 258 257 258 257 258 257 256 256 258 257 257
307 302 303 302 302 302 304 303 303 301 297 294 291 289 289 289 287 286 285 284 282 281 280 279 276 272 268 264 264 262 257 255 256 256 255 256 256 257 258 258 258 257 258 259
306 305 304 305 303 304 304 302 300 298 296 295 295 295 295 294 292 290 288 286 283 282 279 277 274 270 265 263 260 260 258 253 250 253 254 254 255 255 256 258 258 257 257 258
Height
10575 10560 10548 10534 10522 10508 10495 10481 10471 10467 10468 10475 10487 10508 10525 10543 10565 10583 10604 10623 10634 10648 10652 10650 10646 10658 10663 10672 10679 10683 10690 10696 10702 10705 10709 10713 10717 10722 10725 10726 10729 10730 10731 10732
10572 10561 10549 10538 10523 10511 10498 10486 10474 10469 10468 10473 10483 10502 10519 10536 10560 10577 10592 10609 10622 10630 10638 10637 10637 10645 10652 10659 10666 10673 10679 10686 10690 10695 10700 10706 10709 10712 10715 10716 10718 10719 10720 10721
10575 10563 10552 10540 10527 10515 10505 10493 10483 10475 10472 10475 10484 10498 10511 10534 10554 10570 10586 10598 10607 10611 10617 10615 10623 10633 10642 10647 10655 10660 10668 10674 10680 10685 10691 10696 10698 10700 10703 10705 10707 10710 10711 10712
10577 10566 10553 10543 10534 10524 10513 10502 10493 10483 10479 10481 10488 10501 10513 10528 10545 10562 10577 10592 10593 10593 10603 10609 10618 10623 10633 10639 10644 10653 10660 10663 10668 10675 10680 10684 10685 10688 10691 10694 10698 10699 10699 10699
10576 10566 10557 10547 10540 10531 10519 10512 10503 10491 10486 10488 10493 10502 10513 10527 10541 10556 10567 10575 10579 10582 10594 10601 10609 10614 10624 10630 10634 10639 10645 10653 10657 10662 10666 10670 10674 10675 10678 10682 10685 10686 10687 10688
10578 10570 10561 10552 10542 10533 10525 10517 10509 10502 10496 10494 10499 10506 10514 10524 10535 10550 10560 10563 10570 10573 10582 10590 10602 10610 10614 10621 10624 10628 10634 10639 10644 10650 10655 10658 10661 10664 10667 10670 10671 10673 10675 10676
10580 10571 10563 10554 10543 10537 10529 10520 10514 10510 10506 10501 10503 10510 10517 10527 10538 10546 10551 10556 10561 10565 10580 10586 10593 10599 10607 10610 10612 10617 10623 10628 10633 10635 10640 10642 10648 10650 10652 10656 10657 10660 10662 10663
10579 10574 10566 10559 10550 10542 10537 10531 10525 10519 10516 10512 10507 10515 10522 10528 10537 10544 10548 10555 10559 10565 10574 10580 10587 10594 10599 10602 10606 10608 10613 10615 10618 10623 10625 10628 10633 10636 10639 10641 10643 10645 10648 10649
10576 10572 10565 10560 10554 10544 10538 10534 10528 10525 10519 10518 10517 10517 10525 10531 10537 10543 10551 10554 10556 10562 10564 10567 10577 10584 10589 10592 10597 10600 10602 10602 10606 10609 10610 10614 10618 10622 10626 10627 10629 10631 10630 10632
10572 10567 10562 10555 10552 10549 10539 10535 10530 10525 10524 10521 10520 10522 10522 10528 10532 10538 10543 10547 10552 10556 10557 10560 10566 10570 10572 10579 10583 10592 10590 10591 10590 10594 10597 10600 10604 10607 10609 10612 10615 10615 10617 10618
10570 10561 10558 10555 10548 10546 10542 10532 10531 10529 10525 10524 10520 10520 10522 10524 10527 10531 10536 10541 10545 10547 10550 10551 10553 10557 10561 10567 10570 10574 10576 10578 10579 10581 10584 10587 10588 10589 10593 10596 10598 10600 10601 10603
10563 10558 10550 10547 10542 10541 10539 10532 10526 10525 10527 10523 10522 10518 10516 10519 10521 10522 10524 10527 10531 10534 10536 10536 10538 10542 10549 10554 10555 10554 10554 10559 10558 10563 10567 10570 10572 10575 10580 10580 10580 10581 10582 10583
10557 10551 10547 10540 10536 10532 10533 10530 10524 10520 10517 10521 10517 10517 10514 10512 10513 10513 10514 10513 10515 10517 10521 10520 10522 10526 10528 10533 10535 10539 10542 10539 10538 10543 10549 10550 10551 10556 10560 10563 10563 10565 10566 10565
10548 10540 10539 10537 10532 10522 10521 10521 10520 10518 10515 10510 10510 10507 10510 10506 10504 10503 10503 10503 10504 10503 10501 10503 10504 10505 10510 10510 10517 10520 10518 10518 10516 10519 10524 10529 10530 10531 10535 10538 10542 10545 10548 10549
10536 10530 10524 10524 10522 10515 10511 10508 10508 10506 10508 10506 10502 10496 10499 10494 10492 10492 10492 10492 10492 10491 10490 10487 10485 10483 10486 10489 10490 10494 10498 10496 10495 10495 10498 10501 10504 10507 10510 10513 10516 10520 10524 10529
10522 10521 10512 10509 10508 10503 10496 10496 10493 10492 10494 10492 10492 10487 10487 10484 10480 10478 10479 10479 10479 10478 10477 10475 10472 10471 10468 10466 10465 10467 10469 10468 10465 10466 10469 10471 10476 10479 10484 10488 10488 10491 10496 10504
10509 10507 10505 10492 10493 10489 10483 10479 10477 10478 10475 10474 10474 10473 10469 10466 10464 10466 10463 10461 10459 10459 10460 10459 10457 10455 10452 10449 10448 10448 10446 10444 10443 10442 10442 10444 10446 10449 10453 10456 10461 10464 10467 10469
10497 10493 10489 10488 10480 10477 10470 10468 10464 10462 10461 10458 10456 10455 10454 10450 10446 10445 10443 10441 10441 10440 10436 10434 10435 10434 10433 10431 10431 10430 10429 10428 10425 10423 10423 10421 10420 10421 10423 10426 10431 10434 10434 10438
10479 10475 10471 10468 10465 10463 10456 10449 10444 10443 10442 10438 10435 10433 10432 10430 10427 10425 10422 10420 10418 10418 10416 10414 10413 10411 10410 10408 10408 10407 10405 10405 10404 10402 10402 10403 10403 10402 10401 10401 10400 10400 10401 10405
10462 10459 10455 10451 10450 10447 10442 10432 10426 10424 10424 10417 10415 10411 10410 10406 10404 10399 10395 10394 10393 10392 10391 10389 10388 10388 10386 10383 10383 10383 10382 10382 10380 10383 10381 10380 10380 10380 10381 10381 10380 10379 10378 10378
10452 10448 10441 10433 10428 10427 10420 10415 10404 10399 10399 10391 10387 10384 10382 10378 10374 10375 10365 10363 10361 10361 10360 10359 10360 10360 10359 10357 10357 10357 10355 10355 10354 10358 10358 10358 10358 10358 10358 10359 10359 10359 10358 10357
10435 10427 10420 10412 10403 10401 10392 10389 10381 10376 10370 10368 10360 10353 10351 10345 10341 10337 10337 10332 10326 10323 10321 10320 10324 10327 10326 10324 10326 10328 10328 10324 10327 10331 10332 10334 10334 10337 10337 10337 10336 10336 10336 10336
10410 10400 10393 10386 10377 10370 10370 10359 10355 10347 10342 10335 10327 10321 10317 10312 10306 10302 10299 10293 10293 10291 10289 10286 10287 10290 10291 10287 10286 10294 10297 10296 10299 10303 10305 10307 10309 10311 10313 10314 10315 10315 10315 10315
10390 10381 10370 10358 10352 10337 10337 10330 10324 10315 10307 10298 10290 10286 10280 10277 10270 10266 10260 10256 10255 10252 10251 10251 10252 10255 10258 10252 10251 10259 10264 10264 10267 10271 10274 10276 10281 10283 10286 10289 10290 10292 10293 10294
10362 10352 10341 10332 10324 10312 10302 10295 10290 10279 10269 10262 10253 10248 10245 10240 10234 10231 10226 10223 10222 10220 10217 10214 10214 10217 10221 10216 10218 10223 10229 10234 10237 10240 10243 10248 10252 10256 10258 10262 10266 10268 10269 10270
10332 10325 10317 10306 10297 10290 10278 10266 10251 10240 10231 10222 10216 10203 10192 10192 10190 10191 10189 10187 10185 10184 10181 10178 10176 10179 10184 10184 10188 10190 10194 10201 10206 10208 10213 10217 10222 10229 10231 10234 10236 10242 10246 10247